CARTOSAT-2E

Last updated on Tue Oct 21 2025 00:02:31 GMT+0000 (Coordinated Universal Time)

1 42767U 17036C 25293.62885830 .00008636 00000+0 41317-3 0 9995 2 42767 97.4636 351.8845 0004162 60.0280 300.1367 15.19211120461774

Satellite not in orbit